When you browse on this site, cookies collect data to enhance your experience and personalize the content and advertising you see.
Visit our Privacy Policy to learn more. By continuing to use the site, you agree to this use of cookies and data.
  • în România
  • Lista ţărilor
  • Pe 7 zile
  • Temperatura apei
  • Meteo pe hartă
  • Widget-uri
  • user-avatar
    Intrare

    Meteo pe oră la Sankt Polten

    Astăzi, 19 Septembrie, Joi

    Timp Temperatura Precipitaţii Vânt Presiune Umiditate
    00:00 +9°C° 0 mm 1 m/s 741 mmHg 73%
    01:00 +9°C° 0 mm 1 m/s 741 mmHg 74%
    02:00 +9°C° 0 mm 1 m/s 741 mmHg 75%
    03:00 +9°C° 0 mm 1 m/s 741 mmHg 76%
    04:00 +9°C° 0 mm 1 m/s 741 mmHg 77%
    05:00 +9°C° 0 mm 1 m/s 742 mmHg 75%
    06:00 +10°C° 0 mm 1 m/s 742 mmHg 74%
    07:00 +10°C° 0 mm 1 m/s 742 mmHg 73%
    08:00 +12°C° 0 mm 1 m/s 742 mmHg 67%
    09:00 +13°C° 0 mm 1 m/s 743 mmHg 61%
    10:00 +15°C° 0 mm 2 m/s 743 mmHg 55%
    11:00 +15°C° 0 mm 2 m/s 743 mmHg 52%
    12:00 +16°C° 0 mm 2 m/s 742 mmHg 49%
    13:00 +17°C° 0 mm 2 m/s 742 mmHg 46%
    14:00 +16°C° 0 mm 2 m/s 742 mmHg 46%
    15:00 +16°C° 0 mm 2 m/s 742 mmHg 47%
    16:00 +16°C° 0 mm 2 m/s 742 mmHg 48%
    17:00 +14°C° 0 mm 2 m/s 742 mmHg 56%
    18:00 +12°C° 0 mm 1 m/s 743 mmHg 64%
    19:00 +10°C° 0 mm 1 m/s 743 mmHg 72%
    20:00 +9°C° 0 mm 1 m/s 743 mmHg 75%
    21:00 +9°C° 0 mm 1 m/s 744 mmHg 78%
    22:00 +8°C° 0 mm 1 m/s 744 mmHg 80%
    23:00 +8°C° 0 mm 1 m/s 744 mmHg 82%

    Mâine, 20 Septembrie, Vineri

    Timp Temperatura Precipitaţii Vânt Presiune Umiditate
    00:00 +7°C° 0 mm 1 m/s 744 mmHg 83%
    01:00 +7°C° 0 mm 1 m/s 744 mmHg 84%
    02:00 +7°C° 0 mm 1 m/s 744 mmHg 84%
    03:00 +6°C° 0 mm 1 m/s 744 mmHg 85%
    04:00 +6°C° 0 mm 1 m/s 744 mmHg 85%
    05:00 +7°C° 0 mm 1 m/s 744 mmHg 82%
    06:00 +8°C° 0 mm 1 m/s 744 mmHg 79%
    07:00 +8°C° 0 mm 0 m/s 744 mmHg 75%
    08:00 +11°C° 0 mm 1 m/s 744 mmHg 68%
    09:00 +13°C° 0 mm 1 m/s 744 mmHg 60%
    10:00 +15°C° 0 mm 1 m/s 744 mmHg 52%
    11:00 +16°C° 0 mm 1 m/s 743 mmHg 48%
    12:00 +17°C° 0 mm 2 m/s 743 mmHg 44%
    13:00 +18°C° 0 mm 2 m/s 742 mmHg 40%
    14:00 +17°C° 0 mm 2 m/s 742 mmHg 42%
    15:00 +17°C° 0 mm 2 m/s 742 mmHg 43%
    16:00 +17°C° 0 mm 2 m/s 742 mmHg 44%
    17:00 +15°C° 0 mm 2 m/s 742 mmHg 51%
    18:00 +12°C° 0 mm 1 m/s 742 mmHg 58%
    19:00 +10°C° 0 mm 1 m/s 742 mmHg 65%
    20:00 +10°C° 0 mm 1 m/s 742 mmHg 67%
    21:00 +9°C° 0 mm 1 m/s 742 mmHg 68%
    22:00 +9°C° 0 mm 1 m/s 742 mmHg 69%
    23:00 +9°C° 0 mm 1 m/s 742 mmHg 70%

    Poimâine, 21 Septembrie, Sâmbătă

    Timp Temperatura Precipitaţii Vânt Presiune Umiditate
    00:00 +8°C° 0 mm 1 m/s 742 mmHg 71%
    01:00 +8°C° 0 mm 1 m/s 742 mmHg 72%
    02:00 +8°C° 0 mm 1 m/s 742 mmHg 73%
    03:00 +8°C° 0 mm 1 m/s 741 mmHg 74%
    04:00 +7°C° 0 mm 1 m/s 741 mmHg 75%
    05:00 +8°C° 0 mm 1 m/s 741 mmHg 73%
    06:00 +8°C° 0 mm 1 m/s 741 mmHg 72%
    07:00 +9°C° 0 mm 1 m/s 741 mmHg 70%
    08:00 +12°C° 0 mm 2 m/s 741 mmHg 62%
    09:00 +14°C° 0 mm 2 m/s 741 mmHg 55%
    10:00 +17°C° 0 mm 2 m/s 741 mmHg 47%
    11:00 +18°C° 0 mm 2 m/s 740 mmHg 44%
    12:00 +20°C° 0 mm 2 m/s 740 mmHg 41%
    13:00 +21°C° 0 mm 2 m/s 740 mmHg 38%
    14:00 +21°C° 0 mm 2 m/s 739 mmHg 41%
    15:00 +21°C° 0 mm 2 m/s 739 mmHg 43%
    16:00 +21°C° 0 mm 2 m/s 738 mmHg 45%
    17:00 +18°C° 0 mm 2 m/s 738 mmHg 52%
    18:00 +15°C° 0 mm 2 m/s 738 mmHg 60%
    19:00 +13°C° 0 mm 2 m/s 738 mmHg 67%
    20:00 +12°C° 0 mm 2 m/s 737 mmHg 69%
    21:00 +10°C° 0 mm 2 m/s 737 mmHg 72%
    22:00 +10°C° 0 mm 2 m/s 737 mmHg 74%
    23:00 +9°C° 0 mm 2 m/s 737 mmHg 75%

    22 Septembrie, Duminică

    Timp Temperatura Precipitaţii Vânt Presiune Umiditate
    00:00 +10°C° 0 mm 1 m/s 736 mmHg 76%
    01:00 +9°C° 0 mm 1 m/s 736 mmHg 78%
    02:00 +9°C° 0 mm 1 m/s 736 mmHg 79%
    03:00 +9°C° 0 mm 1 m/s 736 mmHg 79%
    04:00 +9°C° 0 mm 1 m/s 735 mmHg 80%
    05:00 +9°C° 0 mm 1 m/s 735 mmHg 78%
    06:00 +10°C° 0 mm 1 m/s 735 mmHg 76%
    07:00 +11°C° 0 mm 1 m/s 735 mmHg 73%
    08:00 +13°C° 0 mm 1 m/s 735 mmHg 66%
    09:00 +16°C° 0 mm 1 m/s 735 mmHg 58%
    10:00 +19°C° 0 mm 1 m/s 735 mmHg 51%
    11:00 +20°C° 0 mm 1 m/s 734 mmHg 49%
    12:00 +21°C° 0 mm 1 m/s 734 mmHg 47%
    13:00 +21°C° 0 mm 2 m/s 734 mmHg 45%
    14:00 +22°C° 0 mm 1 m/s 733 mmHg 49%
    15:00 +22°C° 0 mm 1 m/s 733 mmHg 52%
    16:00 +21°C° 0 mm 1 m/s 732 mmHg 55%
    17:00 +20°C° 0 mm 1 m/s 732 mmHg 61%
    18:00 +18°C° 0 mm 1 m/s 732 mmHg 67%
    19:00 +15°C° 0 mm 1 m/s 732 mmHg 73%
    20:00 +15°C° 0 mm 1 m/s 732 mmHg 73%
    21:00 +15°C° 0 mm 1 m/s 732 mmHg 73%
    22:00 +15°C° 0 mm 1 m/s 731 mmHg 73%
    23:00 +15°C° 0 mm 1 m/s 731 mmHg 75%

    23 Septembrie, Luni

    Timp Temperatura Precipitaţii Vânt Presiune Umiditate
    00:00 +14°C° 0 mm 1 m/s 731 mmHg 77%
    01:00 +13°C° 0 mm 0 m/s 731 mmHg 79%
    02:00 +14°C° 0 mm 1 m/s 731 mmHg 78%
    03:00 +14°C° 0 mm 1 m/s 731 mmHg 78%
    04:00 +14°C° 0 mm 1 m/s 731 mmHg 77%
    05:00 +15°C° 0 mm 2 m/s 731 mmHg 80%
    06:00 +14°C° 0 mm 3 m/s 731 mmHg 83%
    07:00 +15°C° 0 mm 4 m/s 732 mmHg 85%
    08:00 +15°C° 0 mm 4 m/s 732 mmHg 85%
    09:00 +16°C° 0 mm 5 m/s 732 mmHg 84%
    10:00 +16°C° 0 mm 5 m/s 732 mmHg 83%
    11:00 +15°C° 0.1 mm 6 m/s 732 mmHg 84%
    12:00 +15°C° 0.1 mm 6 m/s 732 mmHg 85%
    13:00 +14°C° 0.1 mm 6 m/s 732 mmHg 87%
    14:00 +14°C° 0.3 mm 6 m/s 733 mmHg 88%
    15:00 +13°C° 0.3 mm 5 m/s 733 mmHg 90%
    16:00 +13°C° 0.3 mm 5 m/s 733 mmHg 91%
    17:00 +13°C° 0.5 mm 4 m/s 733 mmHg 92%
    18:00 +13°C° 0.5 mm 3 m/s 733 mmHg 93%
    19:00 +13°C° 0.5 mm 3 m/s 733 mmHg 94%
    20:00 +12°C° 0 mm 3 m/s 733 mmHg 94%
    21:00 +12°C° 0 mm 3 m/s 734 mmHg 93%
    22:00 +12°C° 0 mm 3 m/s 734 mmHg 93%
    23:00 +12°C° 0 mm 3 m/s 734 mmHg 94%

    24 Septembrie, Marţi

    Timp Temperatura Precipitaţii Vânt Presiune Umiditate
    00:00 +11°C° 0 mm 3 m/s 734 mmHg 94%
    01:00 +11°C° 0 mm 3 m/s 734 mmHg 95%
    02:00 +11°C° 0 mm 3 m/s 734 mmHg 95%
    03:00 +11°C° 0 mm 3 m/s 734 mmHg 95%
    04:00 +11°C° 0 mm 3 m/s 734 mmHg 96%
    05:00 +11°C° 0 mm 3 m/s 734 mmHg 95%
    06:00 +11°C° 0 mm 4 m/s 734 mmHg 93%
    07:00 +11°C° 0 mm 4 m/s 734 mmHg 92%
    08:00 +12°C° 0 mm 4 m/s 735 mmHg 87%
    09:00 +13°C° 0 mm 5 m/s 735 mmHg 81%
    10:00 +14°C° 0 mm 5 m/s 735 mmHg 76%
    11:00 +16°C° 0.1 mm 5 m/s 735 mmHg 70%
    12:00 +17°C° 0.1 mm 5 m/s 734 mmHg 63%
    13:00 +19°C° 0.1 mm 5 m/s 734 mmHg 57%
    14:00 +19°C° 0.1 mm 5 m/s 734 mmHg 59%
    15:00 +19°C° 0.1 mm 4 m/s 734 mmHg 60%
    16:00 +19°C° 0.1 mm 4 m/s 734 mmHg 61%
    17:00 +17°C° 0 mm 3 m/s 734 mmHg 69%
    18:00 +14°C° 0 mm 3 m/s 734 mmHg 77%
    19:00 +14°C° 0 mm 2 m/s 734 mmHg 85%
    20:00 +13°C° 0 mm 2 m/s 734 mmHg 87%
    21:00 +13°C° 0 mm 2 m/s 734 mmHg 88%
    22:00 +13°C° 0 mm 2 m/s 734 mmHg 90%
    23:00 +13°C° 0 mm 2 m/s 734 mmHg 87%
    Arată mai mult